This demonstration page uses our WeatherBlox Daily Observations layout. Learn more.

Left ArrowRight Arrow

39.92423, -83.80882

Hourly Observations for November 27, 2015

Temp ( °F °C ) Dew Point ( °F °C ) Humidity (%) Winds ( mph kmh ) Pressure ( in mb ) Visibility ( mi km ) Precip ( " mm )
12:56 am 00:56 Clear 53 11.6 41 5 64 64 S 9 15 30.42 1030 10 16.0934 0 0
1:56 am 01:56 Mostly Clear 55 12.7 42 5.5 62 62 S 12 19 30.39 1029 10 16.0934 0 0
2:56 am 02:56 Partly Cloudy 55 12.7 42 5.5 62 62 S 12 19 30.39 1029 10 16.0934 0 0
3:56 am 03:56 Mostly Cloudy 56 13.3 43 6.1 62 62 S 15 24 30.37 1028 10 16.0934 0 0
4:56 am 04:56 Partly Cloudy 56 13.3 43 6.1 62 62 S 13 20 30.36 1028 10 16.0934 0 0
5:56 am 05:56 Partly Cloudy 55 12.7 44 6.6 67 67 S 13 20 30.37 1028 10 16.0934 0 0
6:56 am 06:56 Mostly Clear 55 12.7 45 7.2 69 69 S 12 19 30.37 1029 10 16.0934 0 0
7:56 am 07:56 Cloudy 56 13.3 46 7.7 69 69 SSW 10 17 30.39 1029 10 16.0934 0 0
8:56 am 08:56 Partly Cloudy 56 13.3 46 7.7 69 69 SSW 10 17 30.39 1029 10 16.0934 0 0
9:56 am 09:56 Mostly Cloudy 58 14.4 47 8.3 67 67 SSW 16 26 30.39 1029 10 16.0934 0 0
10:03 am 10:03 Cloudy 57 14 48 9 72 72 SSW 15 24 30.36 1028 10 16.0934 0 0
10:41 am 10:41 Cloudy 59 15 48 9 68 68 SSW 17 28 30.36 1028 10 16.0934 0 0
10:56 am 10:56 Cloudy 59 15 49 9.4 69 69 SSW 22 35 30.37 1029 10 16.0934 0 0
11:56 am 11:56 Mostly Cloudy 60 15.5 50 10 70 70 SSW 16 26 30.36 1028 10 16.0934 0 0
12:56 pm 12:56 Partly Cloudy 60 15.5 51 10.5 72 72 SSW 15 24 30.34 1027 10 16.0934 0 0
1:56 pm 13:56 Cloudy 60 15.5 51 10.5 72 72 SSW 12 19 30.31 1026 10 16.0934 0 0
2:05 pm 14:05 Mostly Cloudy 61 16 52 11 72 72 SSW 9 15 30.3 1026 10 16.0934 0 0
2:22 pm 14:22 Mostly Cloudy 61 16 52 11 72 72 S 9 15 30.3 1026 10 16.0934 0 0
2:56 pm 14:56 Cloudy 61 16.1 51 10.5 70 70 SSW 10 17 30.29 1026 10 16.0934 0 0
3:46 pm 15:46 Partly Cloudy 61 16 52 11 72 72 SSW 12 19 30.27 1025 10 16.0934 0 0
3:56 pm 15:56 Partly Cloudy 61 16.1 51 10.5 70 70 SSW 10 17 30.28 1025 10 16.0934 0 0
4:56 pm 16:56 Mostly Cloudy 60 15.5 52 11.1 75 75 SSW 9 15 30.29 1026 10 16.0934 0 0
5:56 pm 17:56 Mostly Cloudy 57 13.8 53 11.6 87 87 SSW 6 9 30.29 1026 10 16.0934 0 0
6:56 pm 18:56 Cloudy 57 13.8 53 11.6 87 87 S 5 7 30.29 1026 10 16.0934 0 0
7:08 pm 19:08 Cloudy with Light Rain 57 14 54 12 88 88 S 5 7 30.3 1026 10 16.0934 0 0.0254
7:34 pm 19:34 Cloudy 57 14 54 12 88 88 S 6 9 30.3 1026 10 16.0934 0.01 0.254
7:56 pm 19:56 Mostly Cloudy 57 13.8 54 12.2 90 90 S 7 11 30.29 1026 10 16.0934 0.01 0.254
8:56 pm 20:56 Cloudy 57 13.8 54 12.2 90 90 S 7 11 30.28 1026 10 16.0934 0 0
9:56 pm 21:56 Cloudy 56 13.3 55 12.7 96 96 S 9 15 30.27 1025 7 11.26538 0.02 0.508
10:56 pm 22:56 Cloudy with Mist and Fog 56 13.3 55 12.7 96 96 S 10 17 30.25 1025 6 9.65604 0.02 0.508
11:18 pm 23:18 Cloudy with Light Rain 55 13 55 13 100 100 S 10 17 30.24 1024 2.5 4.02335 0.03 0.762
11:29 pm 23:29 Cloudy with Light Rain 55 13 55 13 100 100 S 10 17 30.24 1024 4 6.43736 0.04 1.016
11:56 pm 23:56 Mostly Cloudy with Light Rain 56 13.3 56 13.3 100 100 SSW 12 19 30.24 1024 2.5 4.02335 0.07 1.778

Powered by AerisWeather